Location: Mentone
(34.5413°N, 85.5351°W)
Time: 01:15:12
(UTC-05:00)

Tiros 1 despin weight - Visible Passes

Search period start: 28 July 2014 00:00
Search period end: 07 August 2014 00:00
Orbit: 602 x 652 km, 48.2° (Epoch: 27 July)

Date Brightness Start Highest point End Pass type
(mag) Time Alt. Az. Time Alt. Az. Time Alt. Az.
28 Jul ? 21:41:06 10° NNW 21:43:42 15° N 21:46:17 10° NE visible
28 Jul ? 23:22:27 10° NW 23:24:46 24° NNW 23:24:46 24° NNW visible
29 Jul ? 20:18:07 10° NW 20:20:38 14° N 20:23:09 10° NNE visible
29 Jul ? 22:00:36 10° NNW 22:03:48 19° NNE 22:05:47 15° NE visible
29 Jul ? 23:41:48 10° NW 23:43:00 18° NW 23:43:00 18° NW visible
30 Jul ? 20:38:19 10° NNW 20:40:48 14° N 20:43:16 10° NE visible
30 Jul ? 22:19:54 10° NW 22:23:45 27° NNE 22:24:03 27° NNE visible
31 Jul ? 20:57:58 10° NNW 21:00:55 17° NNE 21:03:52 10° NE visible
31 Jul ? 22:39:12 10° NW 22:42:22 37° N 22:42:22 37° N visible
01 Aug ? 21:17:19 10° NNW 21:20:56 23° NNE 21:23:30 15° ENE visible
01 Aug ? 22:58:38 10° NW 23:00:44 27° NW 23:00:44 27° NW visible
02 Aug ? 21:36:36 10° NW 21:40:48 37° NNE 21:41:54 32° ENE visible
02 Aug ? 23:18:23 10° WNW 23:19:08 14° WNW 23:19:08 14° WNW visible
03 Aug ? 20:14:43 10° NNW 20:18:06 20° NNE 20:21:26 10° ENE visible
03 Aug ? 21:55:58 10° NW 22:00:21 70° NNE 22:00:21 70° NNE visible
04 Aug ? 20:34:00 10° NW 20:38:01 30° NNE 20:41:37 12° E visible
04 Aug ? 22:15:33 10° WNW 22:18:51 42° W 22:18:51 42° W visible
05 Aug ? 20:53:19 10° NW 20:57:46 53° NNE 21:00:10 25° E visible
05 Aug ? 22:35:39 10° WNW 22:37:25 18° W 22:37:25 18° W visible
06 Aug ? 21:12:48 10° NW 21:17:19 76° SW 21:18:47 42° SE visible
